Location: Amon Carter Post Office
(32.8281°N, 97.0484°W)
Time: 20:16:12
(UTC+00:00)

Meteor 1-27 Rocket - Visible Passes

Search period start: 27 June 2022 00:00
Search period end: 07 July 2022 00:00
Orbit: 830 x 909 km, 81.3° (Epoch: 27 June)

Date Brightness Start Highest point End Pass type
(mag) Time Alt. Az. Time Alt. Az. Time Alt. Az.
27 Jun 3.7 09:58:49 10° N 10:04:29 88° E 10:10:01 10° S visible
28 Jun 3.7 09:52:32 10° N 09:58:11 89° W 10:03:44 10° S visible
29 Jun 3.6 09:46:15 10° N 09:51:53 86° W 09:57:25 10° S visible
30 Jun 3.6 09:39:57 10° N 09:45:35 84° W 09:50:55 11° S visible
01 Jul 3.6 09:33:40 10° N 09:39:17 81° W 09:43:41 17° S visible
02 Jul 3.6 09:27:23 10° N 09:32:59 79° W 09:36:34 23° S visible
03 Jul 6.4 07:41:54 10° ENE 07:42:45 10° ENE 07:43:37 10° ENE visible
03 Jul 3.6 09:21:06 10° NNW 09:26:41 76° W 09:29:31 30° S visible
04 Jul 6.4 07:35:12 10° NE 07:36:29 11° ENE 07:37:46 10° E visible
04 Jul 3.6 09:14:49 10° NNW 09:20:23 74° W 09:22:34 38° S visible
05 Jul 6.3 07:28:37 10° NE 07:30:12 11° ENE 07:31:47 10° E visible
05 Jul 3.6 09:08:32 10° NNW 09:14:05 71° W 09:15:40 46° SSW visible
06 Jul 6.2 07:22:05 10° NE 07:23:56 12° ENE 07:25:47 10° E visible
06 Jul 3.6 09:02:15 10° NNW 09:07:46 69° W 09:08:50 55° SSW visible
